Regional Weather Roundup
Issued by NWS

Home | Current Version | Previous Version | Graphics & Text | Print | Product List | Glossary On
Versions: 1 2 3 4 5 6 7 8 9 10 11 12 13 14 15 16 17 18 19 20 21 22 23 24 25 26 27 28 29 30 31 32 33 34 35 36 37 38 39 40 41 42 43 44 45 46 47 48 49 50
000
ASUS43 KTOP 260208
RWRKS

WEATHER ROUNDUP FOR KANSAS
NATIONAL WEATHER SERVICE GOODLAND KS
900 PM CDT WED APR 25 2018

NOTE:  "FAIR" INDICATES FEW OR NO CLOUDS BELOW 12,000 FEET WITH NO
SIGNIFICANT WEATHER AND/OR OBSTRUCTIONS TO VISIBILITY.

KSZ001>006-013>018-027>032-041>047-260300-
NORTHWEST KANSAS

CITY           SKY/WX    TMP DP  RH WIND       PRES   REMARKS
GOODLAND       CLEAR     45  35  68 S9        30.06F
HAYS           CLEAR     46  35  65 E9        30.08F
HILL CITY      CLEAR     50  36  58 SE5       30.07F
RUSSELL        CLEAR     47  39  74 E6        30.08S
$$

KSZ061>065-074>080-084>089-260300-
SOUTHWEST KANSAS

CITY           SKY/WX    TMP DP  RH WIND       PRES   REMARKS
DODGE CITY     CLEAR     48  36  63 NE3       30.09F
ELKHART        CLEAR     53  37  53 CALM      30.12S
GARDEN CITY    CLEAR     51  37  58 E5        30.08F
GREAT BEND     CLEAR     48  39  71 E3        30.10
LIBERAL        CLEAR     53  35  50 CALM      30.11F
PRATT          CLEAR     46  39  76 E3        30.10F
$$

KSZ066>073-081>083-090>101-260300-
SOUTHEAST KANSAS

CITY           SKY/WX    TMP DP  RH WIND       PRES   REMARKS
CHANUTE        LGT RAIN  49  48  97 N10       30.04R FOG
COFFEYVILLE    LGT RAIN  50  49  96 N16       30.03R FOG
HUTCHINSON     PTCLDY    45  42  89 NE3       30.09F
MEDICINE LODGE   N/A     47  41  80 NE7       30.10R
NEWTON         CLOUDY    45  43  93 N10       30.10S
PARSONS        LGT RAIN  50  49  96 N14       30.04S FOG
WICHITA INTL   CLOUDY    48  44  86 N10       30.09S
WICHITA JABRA  CLOUDY    46  45  96 NW8       30.09S
WICHITA MCCONL CLOUDY    46  43  87 N9        30.09
WINFIELD       CLOUDY    47  45  93 NW9       30.10S
$$

KSZ007>012-019>026-033>040-048>060-102>105-260300-
NORTHEAST KANSAS

CITY           SKY/WX    TMP DP  RH WIND       PRES   REMARKS
CONCORDIA      CLEAR     47  39  74 CALM      30.08F
EMPORIA        CLOUDY    47  45  93 N8        30.07R
LAWRENCE       CLOUDY    50  48  93 NW3       30.07R
MANHATTAN      CLEAR     45  41  86 CALM      30.09S
MARYSVILLE     CLEAR     45  39  81 CALM      30.08S
OLATHE IND     CLOUDY    49  48  97 N6        30.06R
OLATHE EXE     CLOUDY    49  48  97 N5        30.05R
SALINA         CLOUDY    49  43  80 CALM      30.10F
TOPEKA BILLARD CLOUDY    50  47  89 W3        30.06F
TOPEKA FORBES  CLOUDY    50  48  93 NW6       30.06S
$$



USA.gov is the U.S. government's official web portal to all federal, state and local government web resources and services.